"Sample Date","Sample Time","Sample Value","Units","Flow Rate","Laser Status","Micron Size 0","Counts/Channel 0","Micron Size 1","Counts/Channel 1","Micron Size 2","Counts/Channel 2","Micron Size 3","Counts/Channel 3","Micron Size 4","Counts/Channel 4","Micron Size 5","Counts/Channel 5","Micron Size 6","Counts/Channel 6","Micron Size 7","Counts/Channel 7","Micron Size 8","Counts/Channel 8","Micron Size 9","Counts/Channel 9","Micron Size 10","Counts/Channel 10","Micron Size 11","Counts/Channel 11","Micron Size 12","Counts/Channel 12","Micron Size 13","Counts/Channel 13","Micron Size 14","Counts/Channel 14","Micron Size 15","Counts/Channel 15","Micron Size 16","Counts/Channel 16","Micron Size 17","Counts/Channel 17","Micron Size 18","Counts/Channel 18","Micron Size 19","Counts/Channel 19","Micron Size 20","Counts/Channel 20","Micron Size 21","Counts/Channel 21","Micron Size 22","Counts/Channel 22","Micron Size 23","Counts/Channel 23","Micron Size 24","Counts/Channel 24","Micron Size 25","Counts/Channel 25","Micron Size 26","Counts/Channel 26","Micron Size 27","Counts/Channel 27","Micron Size 28","Counts/Channel 28","Micron Size 29","Counts/Channel 29","Micron Size 30","Counts/Channel 30","Micron Size 31","Counts/Channel 31"
"05/02/07","20:00:02",32438.000,"cc",28330.186,1,0.100,25726.000,0.200,5820.000,0.300,794.000,0.500,85.000,1.000,13.000,5.000,0
"05/02/07","20:00:08",32940.000,"cc",28396.885,1,0.100,26073.000,0.200,5908.000,0.300,869.000,0.500,84.000,1.000,6.000,5.000,0
"05/02/07","20:00:14",32549.000,"cc",28363.533,1,0.100,25670.000,0.200,5893.000,0.300,889.000,0.500,88.000,1.000,9.000,5.000,0
"05/02/07","20:00:20",32808.000,"cc",28282.791,1,0.100,25910.000,0.200,5985.000,0.300,807.000,0.500,90.000,1.000,16.000,5.000,0
"05/02/07","20:00:26",32539.000,"cc",28272.565,1,0.100,25756.000,0.200,5875.000,0.300,823.000,0.500,72.000,1.000,13.000,5.000,0
"05/02/07","20:00:32",33106.000,"cc",28310.789,1,0.100,26226.000,0.200,5933.000,0.300,860.000,0.500,79.000,1.000,8.000,5.000,0
"05/02/07","20:00:38",33001.000,"cc",28326.846,1,0.100,25943.000,0.200,6106.000,0.300,822.000,0.500,111.000,1.000,19.000,5.000,0
"05/02/07","20:00:44",33591.000,"cc",28320.897,1,0.100,26565.000,0.200,6001.000,0.300,919.000,0.500,95.000,1.000,11.000,5.000,0
"05/02/07","20:00:50",33444.000,"cc",28328.164,1,0.100,26353.000,0.200,6152.000,0.300,842.000,0.500,85.000,1.000,12.000,5.000,0
"05/02/07","20:00:56",33568.000,"cc",28313.920,1,0.100,26419.000,0.200,6172.000,0.300,860.000,0.500,104.000,1.000,13.000,5.000,0
"05/02/07","20:01:02",33727.000,"cc",28333.619,1,0.100,26676.000,0.200,6092.000,0.300,857.000,0.500,91.000,1.000,11.000,5.000,0
"05/02/07","20:01:08",33943.000,"cc",28255.887,1,0.100,26778.000,0.200,6199.000,0.300,851.000,0.500,102.000,1.000,13.000,5.000,0
"05/02/07","20:01:14",33514.000,"cc",28319.598,1,0.100,26498.000,0.200,6066.000,0.300,851.000,0.500,85.000,1.000,14.000,5.000,0
"05/02/07","20:01:20",34194.000,"cc",28341.414,1,0.100,27080.000,0.200,6180.000,0.300,819.000,0.500,103.000,1.000,12.000,5.000,0
"05/02/07","20:01:26",33938.000,"cc",28317.820,1,0.100,26892.000,0.200,6067.000,0.300,856.000,0.500,107.000,1.000,16.000,5.000,0
"05/02/07","20:01:32",34179.000,"cc",28325.486,1,0.100,27150.000,0.200,6121.000,0.300,808.000,0.500,87.000,1.000,13.000,5.000,0
"05/02/07","20:01:38",34091.000,"cc",28328.090,1,0.100,26869.000,0.200,6211.000,0.300,901.000,0.500,103.000,1.000,7.000,5.000,0
"05/02/07","20:01:44",35118.000,"cc",28338.158,1,0.100,27616.000,0.200,6472.000,0.300,923.000,0.500,96.000,1.000,11.000,5.000,0
"05/02/07","20:01:50",34711.000,"cc",28310.356,1,0.100,27442.000,0.200,6275.000,0.300,901.000,0.500,81.000,1.000,12.000,5.000,0
"05/02/07","20:01:56",35041.000,"cc",28319.244,1,0.100,27768.000,0.200,6260.000,0.300,901.000,0.500,95.000,1.000,17.000,5.000,0
"05/02/07","20:02:02",34948.000,"cc",28298.377,1,0.100,27628.000,0.200,6332.000,0.300,890.000,0.500,83.000,1.000,15.000,5.000,0
"05/02/07","20:02:08",34526.000,"cc",28269.492,1,0.100,27205.000,0.200,6321.000,0.300,880.000,0.500,100.000,1.000,20.000,5.000,0
"05/02/07","20:02:14",34392.000,"cc",28320.955,1,0.100,27194.000,0.200,6228.000,0.300,868.000,0.500,89.000,1.000,13.000,5.000,0
"05/02/07","20:02:20",34755.000,"cc",28366.229,1,0.100,27606.000,0.200,6234.000,0.300,803.000,0.500,94.000,1.000,18.000,5.000,0
"05/02/07","20:02:26",34318.000,"cc",28309.721,1,0.100,27113.000,0.200,6218.000,0.300,865.000,0.500,108.000,1.000,14.000,5.000,0
"05/02/07","20:02:32",35105.000,"cc",28325.137,1,0.100,27820.000,0.200,6279.000,0.300,900.000,0.500,91.000,1.000,15.000,5.000,0
"05/02/07","20:02:38",34808.000,"cc",28328.875,1,0.100,27466.000,0.200,6411.000,0.300,827.000,0.500,92.000,1.000,12.000,5.000,0
"05/02/07","20:02:44",35311.000,"cc",28254.756,1,0.100,27961.000,0.200,6404.000,0.300,842.000,0.500,90.000,1.000,14.000,5.000,0
"05/02/07","20:02:50",35007.000,"cc",28327.272,1,0.100,27673.000,0.200,6353.000,0.300,854.000,0.500,108.000,1.000,19.000,5.000,0
"05/02/07","20:02:56",34667.000,"cc",28300.303,1,0.100,27435.000,0.200,6221.000,0.300,891.000,0.500,99.000,1.000,21.000,5.000,0
"05/02/07","20:03:02",34764.000,"cc",28322.281,1,0.100,27556.000,0.200,6258.000,0.300,846.000,0.500,91.000,1.000,13.000,5.000,0
"05/02/07","20:03:08",35383.000,"cc",28314.344,1,0.100,27884.000,0.200,6495.000,0.300,871.000,0.500,112.000,1.000,21.000,5.000,0
"05/02/07","20:03:14",34332.000,"cc",28329.686,1,0.100,27132.000,0.200,6212.000,0.300,877.000,0.500,96.000,1.000,15.000,5.000,0
"05/02/07","20:03:20",34054.000,"cc",28342.369,1,0.100,26916.000,0.200,6214.000,0.300,816.000,0.500,90.000,1.000,18.000,5.000,0
"05/02/07","20:03:26",34344.000,"cc",28338.666,1,0.100,27090.000,0.200,6267.000,0.300,866.000,0.500,97.000,1.000,24.000,5.000,0
"05/02/07","20:03:32",34081.000,"cc",28317.777,1,0.100,26864.000,0.200,6250.000,0.300,833.000,0.500,115.000,1.000,19.000,5.000,0
"05/02/07","20:03:38",34260.000,"cc",28248.148,1,0.100,27055.000,0.200,6290.000,0.300,801.000,0.500,100.000,1.000,14.000,5.000,0
"05/02/07","20:03:44",33875.000,"cc",28301.148,1,0.100,26954.000,0.200,6032.000,0.300,795.000,0.500,80.000,1.000,14.000,5.000,0
"05/02/07","20:03:50",34268.000,"cc",28328.729,1,0.100,27177.000,0.200,6165.000,0.300,789.000,0.500,116.000,1.000,21.000,5.000,0
"05/02/07","20:03:56",33895.000,"cc",28378.119,1,0.100,26947.000,0.200,6010.000,0.300,819.000,0.500,103.000,1.000,16.000,5.000,0
"05/02/07","20:04:02",33753.000,"cc",28242.133,1,0.100,26674.000,0.200,6110.000,0.300,865.000,0.500,89.000,1.000,15.000,5.000,0
"05/02/07","20:04:08",34263.000,"cc",28294.488,1,0.100,27140.000,0.200,6224.000,0.300,780.000,0.500,101.000,1.000,18.000,5.000,0
"05/02/07","20:04:14",34071.000,"cc",28346.510,1,0.100,26985.000,0.200,6130.000,0.300,852.000,0.500,85.000,1.000,19.000,5.000,0
"05/02/07","20:04:20",34393.000,"cc",28394.529,1,0.100,27109.000,0.200,6338.000,0.300,840.000,0.500,88.000,1.000,18.000,5.000,0
"05/02/07","20:04:26",34232.000,"cc",28380.273,1,0.100,27276.000,0.200,6102.000,0.300,754.000,0.500,84.000,1.000,16.000,5.000,0
"05/02/07","20:04:32",34005.000,"cc",28298.555,1,0.100,26873.000,0.200,6223.000,0.300,788.000,0.500,104.000,1.000,17.000,5.000,0
"05/02/07","20:04:38",34226.000,"cc",28290.238,1,0.100,27296.000,0.200,6092.000,0.300,719.000,0.500,94.000,1.000,25.000,5.000,0
"05/02/07","20:04:44",33945.000,"cc",28285.287,1,0.100,26813.000,0.200,6220.000,0.300,802.000,0.500,89.000,1.000,21.000,5.000,0
"05/02/07","20:04:50",34546.000,"cc",28325.348,1,0.100,27470.000,0.200,6193.000,0.300,776.000,0.500,91.000,1.000,16.000,5.000,0
"05/02/07","20:04:56",34376.000,"cc",28291.533,1,0.100,27217.000,0.200,6251.000,0.300,789.000,0.500,95.000,1.000,24.000,5.000,0
"05/02/07","20:05:02",34385.000,"cc",28317.047,1,0.100,27250.000,0.200,6263.000,0.300,772.000,0.500,79.000,1.000,21.000,5.000,0
"05/02/07","20:05:08",34650.000,"cc",28301.746,1,0.100,27534.000,0.200,6206.000,0.300,813.000,0.500,81.000,1.000,16.000,5.000,0
"05/02/07","20:05:14",34840.000,"cc",28286.455,1,0.100,27684.000,0.200,6258.000,0.300,789.000,0.500,94.000,1.000,15.000,5.000,0
"05/02/07","20:05:20",34943.000,"cc",28323.465,1,0.100,27817.000,0.200,6261.000,0.300,758.000,0.500,91.000,1.000,16.000,5.000,0
"05/02/07","20:05:26",35071.000,"cc",28317.940,1,0.100,27812.000,0.200,6324.000,0.300,831.000,0.500,87.000,1.000,17.000,5.000,0
"05/02/07","20:05:32",35113.000,"cc",28341.590,1,0.100,27944.000,0.200,6275.000,0.300,801.000,0.500,79.000,1.000,14.000,5.000,0
"05/02/07","20:05:38",35172.000,"cc",28342.647,1,0.100,27875.000,0.200,6399.000,0.300,792.000,0.500,85.000,1.000,21.000,5.000,0
"05/02/07","20:05:44",35099.000,"cc",28309.920,1,0.100,27930.000,0.200,6344.000,0.300,746.000,0.500,66.000,1.000,13.000,5.000,0
"05/02/07","20:05:50",35174.000,"cc",28285.398,1,0.100,27857.000,0.200,6405.000,0.300,802.000,0.500,94.000,1.000,16.000,5.000,0
"05/02/07","20:05:56",35271.000,"cc",28296.207,1,0.100,28191.000,0.200,6228.000,0.300,766.000,0.500,71.000,1.000,15.000,5.000,0
"05/02/07","20:06:02",35236.000,"cc",28336.475,1,0.100,27988.000,0.200,6346.000,0.300,788.000,0.500,92.000,1.000,22.000,5.000,0
"05/02/07","20:06:08",35044.000,"cc",28356.113,1,0.100,27909.000,0.200,6255.000,0.300,779.000,0.500,89.000,1.000,12.000,5.000,0
"05/02/07","20:06:14",35813.000,"cc",28313.139,1,0.100,28572.000,0.200,6342.000,0.300,801.000,0.500,83.000,1.000,15.000,5.000,0
"05/02/07","20:06:20",35554.000,"cc",28267.008,1,0.100,28266.000,0.200,6402.000,0.300,793.000,0.500,81.000,1.000,12.000,5.000,0
"05/02/07","20:06:26",35628.000,"cc",28336.924,1,0.100,28448.000,0.200,6288.000,0.300,799.000,0.500,79.000,1.000,14.000,5.000,0
"05/02/07","20:06:32",36016.000,"cc",28343.922,1,0.100,28641.000,0.200,6471.000,0.300,814.000,0.500,77.000,1.000,13.000,5.000,0
"05/02/07","20:06:38",35693.000,"cc",28330.818,1,0.100,28405.000,0.200,6448.000,0.300,746.000,0.500,74.000,1.000,20.000,5.000,0
"05/02/07","20:06:44",35577.000,"cc",28312.000,1,0.100,28132.000,0.200,6501.000,0.300,836.000,0.500,91.000,1.000,17.000,5.000,0
"05/02/07","20:06:50",35803.000,"cc",28261.557,1,0.100,28428.000,0.200,6508.000,0.300,767.000,0.500,85.000,1.000,15.000,5.000,0
"05/02/07","20:06:56",36320.000,"cc",28316.400,1,0.100,28785.000,0.200,6664.000,0.300,789.000,0.500,70.000,1.000,12.000,5.000,0
"05/02/07","20:07:02",36092.000,"cc",28356.863,1,0.100,28617.000,0.200,6589.000,0.300,803.000,0.500,68.000,1.000,15.000,5.000,0
"05/02/07","20:07:08",36170.000,"cc",28299.576,1,0.100,28676.000,0.200,6612.000,0.300,783.000,0.500,82.000,1.000,17.000,5.000,0
"05/02/07","20:07:14",36186.000,"cc",28341.031,1,0.100,28531.000,0.200,6704.000,0.300,842.000,0.500,88.000,1.000,21.000,5.000,0
"05/02/07","20:07:20",35949.000,"cc",28295.680,1,0.100,28529.000,0.200,6512.000,0.300,805.000,0.500,82.000,1.000,21.000,5.000,0
"05/02/07","20:07:26",36033.000,"cc",28346.209,1,0.100,28512.000,0.200,6600.000,0.300,822.000,0.500,75.000,1.000,24.000,5.000,0
"05/02/07","20:07:32",36301.000,"cc",28324.066,1,0.100,28947.000,0.200,6464.000,0.300,780.000,0.500,93.000,1.000,17.000,5.000,0
"05/02/07","20:07:38",36464.000,"cc",28319.742,1,0.100,28930.000,0.200,6587.000,0.300,843.000,0.500,91.000,1.000,13.000,5.000,0
"05/02/07","20:07:44",36614.000,"cc",28278.434,1,0.100,29182.000,0.200,6504.000,0.300,800.000,0.500,103.000,1.000,25.000,5.000,0
"05/02/07","20:07:50",36630.000,"cc",28241.381,1,0.100,29093.000,0.200,6659.000,0.300,776.000,0.500,84.000,1.000,18.000,5.000,0
"05/02/07","20:07:56",36207.000,"cc",28349.150,1,0.100,28638.000,0.200,6655.000,0.300,782.000,0.500,104.000,1.000,28.000,5.000,0
"05/02/07","20:08:02",35797.000,"cc",28335.365,1,0.100,28372.000,0.200,6527.000,0.300,786.000,0.500,92.000,1.000,20.000,5.000,0
"05/02/07","20:08:08",36070.000,"cc",28352.545,1,0.100,28419.000,0.200,6700.000,0.300,821.000,0.500,105.000,1.000,25.000,5.000,0
"05/02/07","20:08:14",36316.000,"cc",28299.047,1,0.100,28834.000,0.200,6536.000,0.300,835.000,0.500,85.000,1.000,26.000,5.000,0
"05/02/07","20:08:20",36227.000,"cc",28324.818,1,0.100,28819.000,0.200,6527.000,0.300,772.000,0.500,84.000,1.000,25.000,5.000,0
"05/02/07","20:08:26",36102.000,"cc",28380.369,1,0.100,28669.000,0.200,6535.000,0.300,794.000,0.500,77.000,1.000,27.000,5.000,0
"05/02/07","20:08:32",36275.000,"cc",28299.854,1,0.100,28946.000,0.200,6413.000,0.300,800.000,0.500,93.000,1.000,23.000,5.000,0
"05/02/07","20:08:38",36412.000,"cc",28336.357,1,0.100,28869.000,0.200,6636.000,0.300,774.000,0.500,106.000,1.000,27.000,5.000,0
"05/02/07","20:08:44",36176.000,"cc",28283.563,1,0.100,28762.000,0.200,6525.000,0.300,761.000,0.500,105.000,1.000,23.000,5.000,0
"05/02/07","20:08:50",36028.000,"cc",28327.225,1,0.100,28494.000,0.200,6679.000,0.300,755.000,0.500,80.000,1.000,20.000,5.000,0
"05/02/07","20:08:56",36182.000,"cc",28345.365,1,0.100,28905.000,0.200,6440.000,0.300,736.000,0.500,82.000,1.000,19.000,5.000,0
"05/02/07","20:09:02",36007.000,"cc",28333.721,1,0.100,28515.000,0.200,6534.000,0.300,850.000,0.500,94.000,1.000,14.000,5.000,0
"05/02/07","20:09:08",36214.000,"cc",28317.996,1,0.100,28839.000,0.200,6527.000,0.300,773.000,0.500,63.000,1.000,12.000,5.000,0
"05/02/07","20:09:14",36219.000,"cc",28304.014,1,0.100,28798.000,0.200,6546.000,0.300,792.000,0.500,68.000,1.000,15.000,5.000,0
"05/02/07","20:09:20",36317.000,"cc",28297.137,1,0.100,28921.000,0.200,6515.000,0.300,790.000,0.500,75.000,1.000,16.000,5.000,0
"05/02/07","20:09:26",36133.000,"cc",28298.148,1,0.100,28767.000,0.200,6506.000,0.300,758.000,0.500,87.000,1.000,15.000,5.000,0
"05/02/07","20:09:32",36077.000,"cc",28325.215,1,0.100,28819.000,0.200,6417.000,0.300,758.000,0.500,70.000,1.000,13.000,5.000,0
"05/02/07","20:09:38",36131.000,"cc",28356.129,1,0.100,28618.000,0.200,6612.000,0.300,806.000,0.500,77.000,1.000,18.000,5.000,0
"05/02/07","20:09:44",35669.000,"cc",28330.398,1,0.100,28424.000,0.200,6419.000,0.300,724.000,0.500,80.000,1.000,21.000,5.000,1.000
"05/02/07","20:09:50",35528.000,"cc",28260.633,1,0.100,28321.000,0.200,6370.000,0.300,741.000,0.500,80.000,1.000,16.000,5.000,0
"05/02/07","20:09:56",35590.000,"cc",28341.684,1,0.100,28240.000,0.200,6520.000,0.300,741.000,0.500,74.000,1.000,15.000,5.000,0
"05/02/07","20:10:02",36418.000,"cc",28287.621,1,0.100,28990.000,0.200,6547.000,0.300,797.000,0.500,72.000,1.000,12.000,5.000,0
"05/02/07","20:10:08",36092.000,"cc",28281.348,1,0.100,28810.000,0.200,6437.000,0.300,745.000,0.500,82.000,1.000,18.000,5.000,0
"05/02/07","20:10:14",36109.000,"cc",28333.777,1,0.100,28743.000,0.200,6511.000,0.300,759.000,0.500,82.000,1.000,14.000,5.000,0
"05/02/07","20:10:20",35964.000,"cc",28320.027,1,0.100,28616.000,0.200,6490.000,0.300,764.000,0.500,77.000,1.000,17.000,5.000,0
"05/02/07","20:10:26",35776.000,"cc",28332.340,1,0.100,28513.000,0.200,6414.000,0.300,749.000,0.500,81.000,1.000,19.000,5.000,0
"05/02/07","20:10:32",35619.000,"cc",28280.434,1,0.100,28226.000,0.200,6513.000,0.300,792.000,0.500,75.000,1.000,13.000,5.000,0
"05/02/07","20:10:38",36025.000,"cc",28324.234,1,0.100,28571.000,0.200,6564.000,0.300,792.000,0.500,71.000,1.000,27.000,5.000,0
"05/02/07","20:10:44",35299.000,"cc",28319.789,1,0.100,27875.000,0.200,6505.000,0.300,824.000,0.500,85.000,1.000,10.000,5.000,0
"05/02/07","20:10:50",35433.000,"cc",28351.152,1,0.100,28190.000,0.200,6436.000,0.300,712.000,0.500,71.000,1.000,24.000,5.000,0
"05/02/07","20:10:56",35636.000,"cc",28276.576,1,0.100,28319.000,0.200,6452.000,0.300,746.000,0.500,94.000,1.000,25.000,5.000,0
"05/02/07","20:11:02",35536.000,"cc",28294.672,1,0.100,28213.000,0.200,6466.000,0.300,757.000,0.500,71.000,1.000,29.000,5.000,0
"05/02/07","20:11:08",35528.000,"cc",28368.383,1,0.100,28205.000,0.200,6451.000,0.300,767.000,0.500,76.000,1.000,29.000,5.000,0
"05/02/07","20:11:14",35123.000,"cc",28299.805,1,0.100,27959.000,0.200,6270.000,0.300,775.000,0.500,94.000,1.000,25.000,5.000,0
"05/02/07","20:11:20",35603.000,"cc",28281.084,1,0.100,28259.000,0.200,6475.000,0.300,757.000,0.500,91.000,1.000,21.000,5.000,0
"05/02/07","20:11:26",35456.000,"cc",28330.600,1,0.100,28171.000,0.200,6340.000,0.300,837.000,0.500,91.000,1.000,17.000,5.000,0
"05/02/07","20:11:32",35833.000,"cc",28343.248,1,0.100,28491.000,0.200,6439.000,0.300,795.000,0.500,86.000,1.000,22.000,5.000,0
"05/02/07","20:11:38",35741.000,"cc",28318.807,1,0.100,28418.000,0.200,6415.000,0.300,803.000,0.500,88.000,1.000,17.000,5.000,0
"05/02/07","20:11:44",35894.000,"cc",28336.518,1,0.100,28519.000,0.200,6490.000,0.300,779.000,0.500,89.000,1.000,17.000,5.000,0
"05/02/07","20:11:50",35910.000,"cc",28318.549,1,0.100,28612.000,0.200,6458.000,0.300,742.000,0.500,72.000,1.000,26.000,5.000,0
"05/02/07","20:11:56",35617.000,"cc",28303.510,1,0.100,28271.000,0.200,6466.000,0.300,790.000,0.500,74.000,1.000,16.000,5.000,0
"05/02/07","20:12:02",35582.000,"cc",28323.016,1,0.100,28114.000,0.200,6620.000,0.300,739.000,0.500,91.000,1.000,18.000,5.000,0
"05/02/07","20:12:08",35874.000,"cc",28271.938,1,0.100,28378.000,0.200,6581.000,0.300,793.000,0.500,98.000,1.000,24.000,5.000,0
"05/02/07","20:12:14",35756.000,"cc",28338.678,1,0.100,28403.000,0.200,6434.000,0.300,786.000,0.500,114.000,1.000,19.000,5.000,0
"05/02/07","20:12:20",35410.000,"cc",28280.356,1,0.100,28051.000,0.200,6486.000,0.300,779.000,0.500,71.000,1.000,23.000,5.000,0
"05/02/07","20:12:26",35472.000,"cc",28326.270,1,0.100,28087.000,0.200,6475.000,0.300,796.000,0.500,88.000,1.000,26.000,5.000,0
"05/02/07","20:12:32",35535.000,"cc",28358.096,1,0.100,28072.000,0.200,6536.000,0.300,824.000,0.500,87.000,1.000,16.000,5.000,0
"05/02/07","20:12:38",35453.000,"cc",28310.906,1,0.100,28057.000,0.200,6457.000,0.300,826.000,0.500,96.000,1.000,17.000,5.000,0
"05/02/07","20:12:44",35450.000,"cc",28310.184,1,0.100,28107.000,0.200,6429.000,0.300,804.000,0.500,90.000,1.000,20.000,5.000,0
"05/02/07","20:12:50",35435.000,"cc",28311.777,1,0.100,28058.000,0.200,6470.000,0.300,781.000,0.500,93.000,1.000,33.000,5.000,0
"05/02/07","20:12:56",35589.000,"cc",28253.891,1,0.100,28395.000,0.200,6323.000,0.300,775.000,0.500,84.000,1.000,12.000,5.000,0
"05/02/07","20:13:02",35264.000,"cc",28325.709,1,0.100,27866.000,0.200,6500.000,0.300,784.000,0.500,87.000,1.000,27.000,5.000,0
"05/02/07","20:13:08",35533.000,"cc",28283.555,1,0.100,28166.000,0.200,6467.000,0.300,794.000,0.500,81.000,1.000,25.000,5.000,0
"05/02/07","20:13:14",35582.000,"cc",28328.338,1,0.100,28358.000,0.200,6333.000,0.300,786.000,0.500,77.000,1.000,28.000,5.000,0
"05/02/07","20:13:20",35309.000,"cc",28402.865,1,0.100,27924.000,0.200,6515.000,0.300,771.000,0.500,77.000,1.000,22.000,5.000,0
"05/02/07","20:13:26",35404.000,"cc",28304.916,1,0.100,28073.000,0.200,6479.000,0.300,754.000,0.500,86.000,1.000,12.000,5.000,0
"05/02/07","20:13:32",35375.000,"cc",28262.477,1,0.100,28138.000,0.200,6366.000,0.300,784.000,0.500,73.000,1.000,14.000,5.000,0
"05/02/07","20:13:38",35536.000,"cc",28315.836,1,0.100,28069.000,0.200,6605.000,0.300,758.000,0.500,83.000,1.000,21.000,5.000,0
"05/02/07","20:13:44",35371.000,"cc",28335.127,1,0.100,27970.000,0.200,6561.000,0.300,752.000,0.500,66.000,1.000,22.000,5.000,0
"05/02/07","20:13:50",35841.000,"cc",28306.109,1,0.100,28440.000,0.200,6538.000,0.300,767.000,0.500,77.000,1.000,19.000,5.000,0
"05/02/07","20:13:56",35417.000,"cc",28303.584,1,0.100,28040.000,0.200,6524.000,0.300,763.000,0.500,73.000,1.000,17.000,5.000,0
"05/02/07","20:14:02",35461.000,"cc",28302.020,1,0.100,28230.000,0.200,6324.000,0.300,782.000,0.500,103.000,1.000,22.000,5.000,0
"05/02/07","20:14:08",35117.000,"cc",28376.932,1,0.100,27797.000,0.200,6420.000,0.300,790.000,0.500,80.000,1.000,30.000,5.000,0
"05/02/07","20:14:14",35183.000,"cc",28290.875,1,0.100,27857.000,0.200,6449.000,0.300,761.000,0.500,92.000,1.000,24.000,5.000,0
"05/02/07","20:14:20",35000.000,"cc",28309.076,1,0.100,27610.000,0.200,6550.000,0.300,726.000,0.500,95.000,1.000,19.000,5.000,0
"05/02/07","20:14:26",34932.000,"cc",28316.684,1,0.100,27617.000,0.200,6431.000,0.300,779.000,0.500,84.000,1.000,21.000,5.000,0
"05/02/07","20:14:32",35290.000,"cc",28302.143,1,0.100,28069.000,0.200,6299.000,0.300,830.000,0.500,83.000,1.000,9.000,5.000,0
"05/02/07","20:14:38",35204.000,"cc",28302.029,1,0.100,27836.000,0.200,6475.000,0.300,800.000,0.500,76.000,1.000,16.000,5.000,1.000
"05/02/07","20:14:44",34862.000,"cc",28316.826,1,0.100,27558.000,0.200,6396.000,0.300,795.000,0.500,86.000,1.000,27.000,5.000,0
"05/02/07","20:14:50",35018.000,"cc",28359.414,1,0.100,27770.000,0.200,6395.000,0.300,761.000,0.500,73.000,1.000,19.000,5.000,0
"05/02/07","20:14:56",34606.000,"cc",28298.330,1,0.100,27558.000,0.200,6247.000,0.300,701.000,0.500,88.000,1.000,12.000,5.000,0
"05/02/07","20:15:02",35112.000,"cc",28342.012,1,0.100,28013.000,0.200,6254.000,0.300,757.000,0.500,74.000,1.000,14.000,5.000,0
"05/02/07","20:15:08",34750.000,"cc",28312.215,1,0.100,27668.000,0.200,6259.000,0.300,733.000,0.500,75.000,1.000,15.000,5.000,0
"05/02/07","20:15:14",34573.000,"cc",28333.982,1,0.100,27495.000,0.200,6193.000,0.300,796.000,0.500,69.000,1.000,20.000,5.000,0
"05/02/07","20:15:20",34443.000,"cc",28279.711,1,0.100,27383.000,0.200,6184.000,0.300,771.000,0.500,87.000,1.000,18.000,5.000,0
"05/02/07","20:15:26",34286.000,"cc",28369.986,1,0.100,27123.000,0.200,6272.000,0.300,791.000,0.500,84.000,1.000,16.000,5.000,0
"05/02/07","20:15:32",34353.000,"cc",28320.947,1,0.100,27205.000,0.200,6314.000,0.300,736.000,0.500,76.000,1.000,22.000,5.000,0
"05/02/07","20:15:38",34229.000,"cc",28325.594,1,0.100,27260.000,0.200,6113.000,0.300,746.000,0.500,86.000,1.000,24.000,5.000,0
"05/02/07","20:15:44",34062.000,"cc",28282.012,1,0.100,27121.000,0.200,6126.000,0.300,718.000,0.500,80.000,1.000,17.000,5.000,0
"05/02/07","20:15:50",34264.000,"cc",28323.949,1,0.100,27232.000,0.200,6173.000,0.300,767.000,0.500,79.000,1.000,13.000,5.000,0
"05/02/07","20:15:56",34227.000,"cc",28292.387,1,0.100,27287.000,0.200,6153.000,0.300,696.000,0.500,70.000,1.000,21.000,5.000,0
"05/02/07","20:16:02",33898.000,"cc",28313.959,1,0.100,26743.000,0.200,6323.000,0.300,731.000,0.500,87.000,1.000,14.000,5.000,0
"05/02/07","20:16:08",34047.000,"cc",28303.350,1,0.100,27184.000,0.200,6030.000,0.300,737.000,0.500,75.000,1.000,21.000,5.000,0
"05/02/07","20:16:14",34261.000,"cc",28290.664,1,0.100,27153.000,0.200,6247.000,0.300,766.000,0.500,73.000,1.000,22.000,5.000,0
"05/02/07","20:16:20",34039.000,"cc",28337.471,1,0.100,27001.000,0.200,6242.000,0.300,713.000,0.500,74.000,1.000,9.000,5.000,0
"05/02/07","20:16:26",33584.000,"cc",28285.555,1,0.100,26654.000,0.200,6091.000,0.300,734.000,0.500,78.000,1.000,27.000,5.000,0
"05/02/07","20:16:32",33873.000,"cc",28367.879,1,0.100,26801.000,0.200,6164.000,0.300,798.000,0.500,91.000,1.000,19.000,5.000,0
"05/02/07","20:16:38",33535.000,"cc",28344.275,1,0.100,26494.000,0.200,6134.000,0.300,772.000,0.500,108.000,1.000,27.000,5.000,0
"05/02/07","20:16:44",33474.000,"cc",28268.920,1,0.100,26445.000,0.200,6142.000,0.300,766.000,0.500,93.000,1.000,28.000,5.000,0
"05/02/07","20:16:50",33710.000,"cc",28335.055,1,0.100,26792.000,0.200,6082.000,0.300,738.000,0.500,79.000,1.000,18.000,5.000,1.000
"05/02/07","20:16:56",33914.000,"cc",28287.379,1,0.100,27017.000,0.200,6002.000,0.300,805.000,0.500,65.000,1.000,25.000,5.000,0
"05/02/07","20:17:02",34232.000,"cc",28297.445,1,0.100,27156.000,0.200,6196.000,0.300,756.000,0.500,102.000,1.000,22.000,5.000,0
"05/02/07","20:17:08",34092.000,"cc",28357.623,1,0.100,27092.000,0.200,6162.000,0.300,745.000,0.500,75.000,1.000,18.000,5.000,0
"05/02/07","20:17:14",34278.000,"cc",28331.557,1,0.100,27236.000,0.200,6177.000,0.300,784.000,0.500,67.000,1.000,14.000,5.000,0
"05/02/07","20:17:20",34368.000,"cc",28299.248,1,0.100,27304.000,0.200,6230.000,0.300,756.000,0.500,64.000,1.000,14.000,5.000,0
"05/02/07","20:17:26",34293.000,"cc",28338.717,1,0.100,27279.000,0.200,6205.000,0.300,716.000,0.500,75.000,1.000,18.000,5.000,0
"05/02/07","20:17:32",34357.000,"cc",28341.533,1,0.100,27272.000,0.200,6205.000,0.300,768.000,0.500,95.000,1.000,17.000,5.000,0